User: anonymous   Login
Location: Unspecified
(0.0000°N, 0.0000°E)
Time: 23:16:41
(UTC+00:00)
Language:

PAYLOAD A - Orbit

View from above orbital plane
View from above orbital plane
View from above satellite
View from above satellite

Ground track
Ground track

The orbit data is extracted from the following two-line orbital elements,

1 27055U 01058A   18016.13703126  .00000005  00000-0 -29839-4 0  9993
2 27055  82.5454  34.7378 0009750 348.1101  11.9757 12.59822224738230
Epoch (UTC): 16 January 2018 03:17:19
Eccentricity: 0.0009750
inclination: 82.5454°
perigee height: 1416 km
apogee height: 1431 km
right ascension of ascending node: 34.7378°
argument of perigee: 348.1101°
revolutions per day: 12.59822224
mean anomaly at epoch: 11.9757°
orbit number at epoch: 73823

The dashed part of the orbit path shows where the satellite is in the earth's shadow,  

DLR